Wind_Speed
35 35 40 42 44 36 27 30 21 23 29 33 30 34 36 39 46 45 49 54 54 55 57 56 60 56 49 32 16 15 12 11 11
38 35 41 41 48 46 43 35 32 26 28 33 34 34 34 41 43 46 51 51 52 53 55 57 59 56 51 42 26 18 18 16 13
42 39 35 39 46 48 46 46 35 20 26 28 35 38 35 38 39 47 46 51 51 50 53 53 56 57 52 44 37 25 19 20 19
45 42 39 38 44 46 45 43 44 28 27 31 38 33 35 31 46 43 42 50 50 49 48 51 54 56 53 50 43 37 26 21 23
46 44 39 36 39 47 44 39 38 41 36 35 40 36 36 38 39 41 45 50 48 48 45 50 51 53 51 52 44 42 35 26 24
51 50 45 39 37 41 42 39 44 40 39 34 36 43 37 35 43 46 44 46 46 46 45 45 50 52 51 50 50 45 44 34 24
57 55 53 48 43 40 36 38 43 44 37 38 36 46 37 39 43 38 41 45 47 45 47 45 48 51 53 48 53 52 46 39 32
63 56 55 52 48 44 41 41 35 36 40 33 30 43 36 40 42 37 43 44 48 44 44 45 45 47 50 52 51 52 52 46 43
66 60 58 55 51 49 48 46 49 42 33 32 31 39 39 39 47 42 47 50 44 47 42 41 40 43 48 51 53 52 52 52 47
65 63 58 54 53 47 50 50 51 53 47 32 35 44 37 40 46 47 45 48 46 41 46 45 41 39 47 49 52 49 50 52 53
59 61 63 61 56 53 52 53 48 43 38 35 41 41 38 38 42 47 42 42 45 40 46 49 44 39 43 47 49 46 48 50 54
71 66 66 65 65 64 60 52 51 49 42 39 38 46 41 37 41 48 43 47 43 41 50 49 41 40 42 46 44 45 46 49 52
65 67 67 70 68 66 64 59 53 53 49 45 44 49 48 37 41 47 43 46 44 47 48 48 43 46 42 44 43 44 45 47 50
68 69 66 66 68 65 66 60 55 49 48 46 50 49 48 46 44 47 44 47 45 45 45 48 44 43 44 42 44 42 45 46 48
71 69 69 67 67 63 62 64 55 54 52 48 51 56 53 48 47 47 50 46 51 51 46 46 44 50 47 48 45 42 44 46 48
78 76 74 67 65 61 60 64 62 59 59 57 55 57 54 47 47 49 51 52 52 52 49 46 47 49 50 48 47 44 42 45 47
77 73 70 68 67 63 60 64 64 65 61 59 57 55 53 53 47 55 53 52 46 48 51 53 52 53 51 51 51 48 44 45 47
71 71 70 72 68 70 65 65 66 64 63 64 65 65 62 61 55 51 52 57 56 49 54 53 55 56 54 54 53 49 48 47 49
81 76 73 70 68 71 71 69 69 70 64 59 59 62 61 56 56 60 57 58 53 50 51 53 58 57 56 57 55 52 52 51 51
74 81 69 64 67 71 73 77 78 77 74 67 68 66 61 59 61 63 61 62 57 52 52 60 59 62 62 60 56 55 55 56 58
Wind_Direction
243 256 260 257 262 264 272 290 291 306 286 292 309 322 329 333 335 336 340 347 352 0 6 13 14 14 16 11 334 301 298 297 298
245 248 252 255 255 262 268 275 273 299 292 288 301 312 325 333 335 335 335 344 350 354 4 7 9 12 12 10 5 321 301 298 288
246 248 250 256 258 255 263 267 281 293 307 299 304 297 323 323 335 333 335 336 343 351 1 6 8 6 15 9 8 1 315 295 294
248 250 250 253 258 259 261 267 273 280 302 301 291 299 317 324 326 326 332 334 340 348 356 2 4 8 12 13 6 7 351 311 291
247 254 255 254 254 260 256 264 270 275 285 300 296 296 308 315 317 321 326 328 337 340 356 356 358 3 9 16 10 9 7 347 307
248 251 254 256 255 259 257 261 274 271 273 288 291 292 299 304 315 313 320 325 332 335 348 357 354 360 5 9 16 12 12 4 345
248 251 254 254 255 256 257 260 263 264 275 280 285 284 297 304 305 305 320 322 325 328 337 348 350 354 357 5 10 13 8 12 3
247 249 252 253 250 252 254 254 257 262 268 268 283 276 293 298 296 307 318 320 323 324 333 338 345 353 354 356 6 10 11 6 13
245 247 248 246 248 252 253 252 252 257 255 262 279 275 283 289 293 305 309 311 318 323 331 335 343 351 350 349 355 2 5 8 7
243 245 241 239 243 243 248 251 255 257 256 270 269 272 273 283 289 304 302 307 309 318 321 329 335 348 347 347 348 0 3 3 7
238 239 239 241 236 240 247 248 253 248 252 259 263 267 271 276 285 294 301 303 305 315 315 319 322 339 344 344 342 352 357 2 360
242 238 238 244 241 239 242 241 245 250 257 259 259 265 269 272 280 288 293 296 302 309 309 315 317 328 339 339 340 344 353 353 355
240 240 241 245 249 249 244 244 248 248 255 260 258 263 266 268 278 278 290 294 303 302 304 310 311 318 327 336 336 340 343 348 351
241 241 240 250 249 247 245 244 243 245 248 249 254 258 259 261 272 275 281 290 302 302 303 305 307 315 322 331 333 335 335 340 345
236 237 246 245 246 244 247 244 241 243 249 250 252 260 257 263 267 272 273 280 289 294 298 301 305 309 314 320 331 331 331 332 336
235 243 244 238 241 242 245 244 241 245 245 243 245 252 257 266 269 269 271 276 279 284 291 297 302 304 309 315 322 327 326 326 329
236 236 233 235 240 241 241 245 242 242 248 247 245 249 257 264 265 266 276 275 274 286 287 292 297 299 302 309 314 319 323 321 325
230 227 236 242 240 242 243 244 240 245 248 252 249 251 258 265 258 261 264 271 273 275 282 289 291 293 296 303 308 313 319 315 319
232 236 242 243 241 241 243 241 239 245 246 249 249 254 258 259 258 263 264 267 267 276 280 281 287 292 294 300 303 309 313 316 312
229 236 240 241 241 240 241 242 243 245 248 250 253 252 257 261 266 260 263 266 267 273 275 277 286 289 291 297 302 304 307 311 313
Height
10890 10891 10893 10896 10896 10899 10901 10899 10902 10902 10899 10898 10894 10893 10891 10889 10887 10884 10883 10880 10878 10871 10864 10857 10850 10846 10841 10838 10836 10835 10833 10831 10830
10884 10887 10889 10891 10892 10894 10896 10897 10898 10900 10898 10897 10894 10892 10889 10886 10884 10883 10881 10879 10876 10873 10866 10860 10853 10848 10843 10840 10836 10834 10832 10830 10828
10878 10882 10885 10886 10887 10890 10891 10892 10895 10896 10896 10895 10893 10891 10887 10885 10882 10881 10879 10878 10877 10872 10867 10861 10854 10848 10844 10840 10835 10831 10830 10828 10826
10872 10876 10879 10882 10882 10883 10887 10888 10891 10892 10892 10892 10891 10888 10886 10883 10881 10880 10878 10876 10875 10872 10868 10862 10857 10852 10845 10840 10835 10830 10826 10824 10823
10865 10870 10874 10877 10878 10878 10882 10884 10886 10888 10889 10889 10889 10886 10885 10880 10880 10878 10876 10875 10873 10870 10867 10863 10859 10853 10848 10842 10837 10829 10824 10821 10820
10858 10863 10868 10872 10874 10874 10877 10880 10881 10884 10885 10885 10885 10883 10881 10878 10877 10876 10874 10873 10872 10869 10867 10862 10858 10855 10849 10843 10837 10832 10824 10818 10816
10851 10855 10860 10865 10868 10870 10873 10875 10877 10880 10880 10881 10881 10879 10877 10875 10875 10872 10872 10870 10870 10868 10865 10862 10857 10853 10848 10844 10838 10832 10826 10820 10814
10841 10846 10851 10857 10861 10865 10868 10871 10872 10873 10874 10875 10876 10875 10873 10874 10871 10868 10867 10867 10866 10865 10862 10859 10855 10851 10846 10841 10838 10832 10827 10820 10816
10832 10837 10843 10850 10853 10858 10862 10864 10867 10867 10867 10868 10871 10870 10869 10870 10868 10865 10862 10864 10863 10861 10859 10858 10854 10849 10844 10840 10836 10831 10826 10821 10816
10823 10828 10833 10840 10845 10850 10853 10857 10860 10861 10860 10862 10865 10865 10866 10866 10864 10861 10860 10860 10859 10857 10856 10854 10851 10848 10844 10838 10834 10830 10825 10820 10814
10812 10818 10824 10830 10836 10840 10844 10849 10853 10854 10854 10856 10859 10860 10860 10861 10861 10858 10856 10856 10854 10853 10851 10850 10847 10845 10842 10837 10832 10826 10822 10818 10813
10801 10807 10813 10819 10825 10830 10836 10840 10845 10848 10848 10850 10852 10854 10854 10854 10856 10854 10852 10852 10850 10848 10847 10845 10842 10840 10838 10836 10829 10823 10819 10815 10810
10789 10795 10802 10808 10813 10819 10825 10832 10837 10840 10842 10843 10845 10847 10847 10848 10849 10849 10848 10846 10844 10843 10843 10840 10837 10835 10834 10832 10828 10822 10816 10812 10807
10778 10784 10791 10797 10803 10809 10815 10822 10827 10831 10833 10835 10837 10839 10840 10841 10842 10842 10841 10840 10838 10837 10838 10835 10832 10829 10829 10827 10824 10819 10815 10809 10804
10765 10773 10780 10786 10793 10798 10805 10811 10817 10821 10824 10827 10829 10830 10831 10832 10834 10835 10835 10836 10834 10832 10831 10829 10826 10823 10821 10820 10819 10815 10811 10806 10801
10751 10760 10768 10775 10783 10788 10796 10801 10806 10809 10812 10817 10819 10822 10823 10825 10826 10827 10827 10827 10828 10825 10825 10822 10820 10817 10814 10814 10812 10810 10805 10801 10795
10741 10748 10755 10764 10773 10778 10785 10790 10795 10798 10803 10806 10811 10813 10814 10816 10818 10819 10818 10819 10819 10818 10817 10815 10812 10810 10808 10806 10805 10803 10798 10793 10788
10728 10736 10743 10753 10759 10766 10773 10779 10785 10787 10793 10797 10799 10803 10805 10807 10808 10809 10809 10809 10810 10810 10808 10806 10803 10802 10801 10799 10797 10795 10791 10786 10781
10716 10723 10730 10738 10745 10754 10758 10766 10773 10778 10782 10786 10788 10793 10796 10798 10797 10798 10800 10799 10799 10800 10799 10797 10795 10793 10791 10791 10788 10786 10782 10779 10774
10701 10709 10718 10726 10733 10740 10746 10754 10760 10765 10771 10773 10778 10783 10785 10788 10789 10789 10790 10790 10789 10790 10790 10788 10786 10784 10781 10780 10777 10775 10772 10770 10766